Charleroi, Belgium

9:40 PM CET on December 03, 2016 (GMT +0100)
Brussels South

Weather History for EBCI - December, 2011

Change the Weather History Date:

Thursday, December 15, 2011

  Actual Average Record
Temperature  
Mean Temperature 40 °F -  
Max Temperature 42 °F 40 °F 50 °F (1998)
Min Temperature 38 °F 32 °F 21 °F (2001)
Degree Days  
Heating Degree Days 25    
Moisture  
Dew Point 36 °F    
Average Humidity 83    
Maximum Humidity 93    
Minimum Humidity 73    
Precipitation  
Precipitation 0.12 in - - ()
Sea Level Pressure  
Sea Level Pressure 29.61 in    
Wind  
Wind Speed 17 mph ()    
Max Wind Speed 25 mph    
Max Gust Speed 34 mph    
Visibility 6.9 miles    
Events Rain    
Averages and records for this station are not official NWS values.
T = Trace of Precipitation, MM = Missing Value Source: Averaged Metar Reports

Daily Weather History Graph

Daily Weather History Graph

Search for Another Location

Airport or City:

Trip Planner

Search our weather history database for the weather conditions in past years. The results will help you decide how hot, cold, wet, or windy it might be!

Date:

Astronomy

Dec. 15, 2011 Rise Set
Actual Time 8:35 AM CET 4:38 PM CET
Civil Twilight 7:57 AM CET 5:17 PM CET
Nautical Twilight 7:15 AM CET 5:59 PM CET
Astronomical Twilight 6:35 AM CET 6:38 PM CET
Moon 10:14 PM CET (12/15) 11:20 AM CET (12/15)
Length of Visible Light 9h 20m
Length of Day
8h 02m
Waning Gibbous, 77% of the Moon is Illuminated
Dec 15
Waning Gibbous
Dec 18
Last Quarter
Dec 24
New
Jan 1
First Quarter
Jan 9
Full

Hourly Weather History & Observations

Time (CET) Temp. Windchill Dew Point Humidity Pressure Visibility Wind Dir Wind Speed Gust Speed Precip Events Conditions
12:20 AM 39.2 °F 29.8 °F 33.8 °F 81% 29.62 in 6.2 mi SSW 18.4 mph - N/A   Partly Cloudy
12:50 AM 39.2 °F 29.8 °F 35.6 °F 87% 29.62 in 6.2 mi SSW 18.4 mph - N/A   Mostly Cloudy
1:00 AM 39 °F - 35 °F 79% 29.66 in 16 mi SSW 17.9 mph - -   Partly Cloudy
1:20 AM 39.2 °F 29.8 °F 35.6 °F 87% 29.62 in 6.2 mi SSW 18.4 mph - N/A   Mostly Cloudy
1:50 AM 41.0 °F 33.1 °F 35.6 °F 81% 29.59 in 6.2 mi SSW 15.0 mph - N/A   Mostly Cloudy
2:20 AM 41.0 °F 33.1 °F 35.6 °F 81% 29.59 in 6.2 mi SSW 15.0 mph - N/A   Mostly Cloudy
2:50 AM 41.0 °F 33.1 °F 35.6 °F 81% 29.59 in 6.2 mi SSW 15.0 mph - N/A   Mostly Cloudy
3:20 AM 41.0 °F 33.5 °F 35.6 °F 81% 29.59 in 6.2 mi SSW 13.8 mph - N/A   Mostly Cloudy
3:50 AM 41.0 °F 33.1 °F 35.6 °F 81% 29.59 in 6.2 mi SW 15.0 mph - N/A   Mostly Cloudy
4:00 AM 41 °F - 35 °F 73% 29.62 in 19 mi SW 15.7 mph - -   Mostly Cloudy
4:20 AM 41.0 °F 32.2 °F 35.6 °F 81% 29.59 in 6.2 mi SW 18.4 mph - N/A   Mostly Cloudy
4:50 AM 41.0 °F 33.1 °F 35.6 °F 81% 29.59 in 6.2 mi SSW 15.0 mph - N/A   Mostly Cloudy
5:20 AM 41.0 °F 32.2 °F 35.6 °F 81% 29.59 in 6.2 mi SSW 18.4 mph - N/A   Mostly Cloudy
5:50 AM 41.0 °F 31.9 °F 33.8 °F 76% 29.59 in 6.2 mi SSW 19.6 mph - N/A   Mostly Cloudy
6:20 AM 41.0 °F 31.9 °F 33.8 °F 76% 29.59 in 6.2 mi SSW 19.6 mph 31.1 mph N/A   Mostly Cloudy
6:50 AM 39.2 °F 29.6 °F 33.8 °F 81% 29.56 in 6.2 mi SSW 19.6 mph - N/A   Scattered Clouds
7:00 AM 40 °F - 34 °F 73% 29.60 in 19 mi SSW 20.1 mph - -   Mostly Cloudy
7:20 AM 41.0 °F 31.6 °F 33.8 °F 76% 29.56 in 6.2 mi SSW 20.7 mph - N/A   Partly Cloudy
7:50 AM 41.0 °F 31.9 °F 35.6 °F 81% 29.56 in 6.2 mi SSW 19.6 mph 32.2 mph N/A   Scattered Clouds
8:20 AM 41.0 °F 31.9 °F 35.6 °F 81% 29.59 in 6.2 mi SSW 19.6 mph - N/A   Mostly Cloudy
8:50 AM 41.0 °F 31.9 °F 35.6 °F 81% 29.56 in 6.2 mi SSW 19.6 mph - N/A   Mostly Cloudy
9:20 AM 41.0 °F 31.6 °F 35.6 °F 81% 29.59 in 6.2 mi SSW 20.7 mph - N/A   Mostly Cloudy
9:50 AM 41.0 °F 31.6 °F 35.6 °F 81% 29.59 in 6.2 mi SSW 20.7 mph - N/A Rain Light Rain
10:00 AM 41 °F - 35 °F 73% 29.61 in 9 mi SSW 20.1 mph - - Rain Light Rain
10:20 AM 41.0 °F 31.9 °F 35.6 °F 81% 29.59 in 6.2 mi SSW 19.6 mph 32.2 mph N/A   Mostly Cloudy
10:50 AM 41.0 °F 31.6 °F 35.6 °F 81% 29.59 in 6.2 mi SW 20.7 mph - N/A   Mostly Cloudy
11:20 AM 41.0 °F 31.1 °F 35.6 °F 81% 29.59 in 6.2 mi SSW 23.0 mph - N/A Rain Light Rain Showers
11:50 AM 41.0 °F 31.4 °F 35.6 °F 81% 29.59 in 5.0 mi SW 21.9 mph - N/A Rain Light Rain Showers
12:20 PM 41.0 °F 31.4 °F 35.6 °F 81% 29.59 in 5.0 mi SW 21.9 mph 34.5 mph N/A Rain Light Rain Showers
12:50 PM 41.0 °F 31.9 °F 35.6 °F 81% 29.59 in 6.2 mi SW 19.6 mph 32.2 mph N/A   Mostly Cloudy
1:00 PM 41 °F - 36 °F 77% 29.64 in 9 mi SW 20.1 mph - - Rain Light Rain Showers
1:20 PM 41.0 °F 31.4 °F 35.6 °F 81% 29.59 in 6.2 mi SW 21.9 mph 33.4 mph N/A   Scattered Clouds
1:50 PM 41.0 °F 30.7 °F 35.6 °F 81% 29.59 in 6.2 mi SW 25.3 mph - N/A   Partly Cloudy
2:20 PM 42.8 °F 33.5 °F 35.6 °F 76% 29.62 in 6.2 mi SW 23.0 mph - N/A   Mostly Cloudy
2:50 PM 42.8 °F 33.8 °F 37.4 °F 81% 29.62 in 6.2 mi SW 21.9 mph - N/A   Mostly Cloudy
3:20 PM 41.0 °F 31.9 °F 37.4 °F 87% 29.65 in 5.0 mi WSW 19.6 mph - N/A Rain Light Rain Showers
3:50 PM 41.0 °F 31.6 °F 37.4 °F 87% 29.65 in 6.2 mi SW 20.7 mph - N/A Rain Light Rain Showers
4:00 PM 41 °F - 38 °F 84% 29.68 in 7 mi SW 20.1 mph - - Rain Light Rain Showers
4:20 PM 39.2 °F 29.8 °F 37.4 °F 93% 29.65 in 6.2 mi SW 18.4 mph - N/A   Mostly Cloudy
4:50 PM 39.2 °F 29.6 °F 37.4 °F 93% 29.65 in 6.2 mi SW 19.6 mph - N/A   Mostly Cloudy
5:20 PM 39.2 °F 29.6 °F 37.4 °F 93% 29.65 in 6.2 mi SW 19.6 mph - N/A   Mostly Cloudy
5:50 PM 39.2 °F 29.6 °F 37.4 °F 93% 29.65 in 3.1 mi SW 19.6 mph - N/A Rain Rain Showers
6:20 PM 39.2 °F 29.8 °F 37.4 °F 93% 29.65 in 6.2 mi SW 18.4 mph 32.2 mph N/A Rain Light Rain Showers
6:50 PM 39.2 °F 30.5 °F 37.4 °F 93% 29.65 in 6.2 mi WSW 16.1 mph - N/A Rain Light Rain Showers
7:00 PM 40 °F - 37 °F 87% 29.70 in 9 mi WSW 15.7 mph - - Rain Light Rain Showers
7:20 PM 41.0 °F 32.5 °F 37.4 °F 87% 29.65 in 6.2 mi SW 17.3 mph - N/A Rain Light Rain Showers
7:50 PM 39.2 °F 30.5 °F 37.4 °F 93% 29.65 in 6.2 mi SW 16.1 mph - N/A   Mostly Cloudy
8:20 PM 39.2 °F 29.8 °F 37.4 °F 93% 29.62 in 6.2 mi SSW 18.4 mph - N/A   Mostly Cloudy
8:50 PM 41.0 °F 32.8 °F 37.4 °F 87% 29.62 in 6.2 mi SSW 16.1 mph - N/A   Scattered Clouds
9:20 PM 41.0 °F 32.5 °F 37.4 °F 87% 29.59 in 6.2 mi SSW 17.3 mph - N/A   Scattered Clouds
9:50 PM 41.0 °F 32.8 °F 37.4 °F 87% 29.59 in 6.2 mi SSW 16.1 mph - N/A   Scattered Clouds
10:00 PM 41 °F - 37 °F 80% 29.62 in 8 mi SSW 15.7 mph - -   Mostly Cloudy
10:20 PM 41.0 °F 32.5 °F 37.4 °F 87% 29.59 in 6.2 mi SSW 17.3 mph - N/A   Mostly Cloudy
10:50 PM 41.0 °F 32.8 °F 37.4 °F 87% 29.56 in 6.2 mi SSW 16.1 mph - N/A   Scattered Clouds
11:20 PM 41.0 °F 32.8 °F 37.4 °F 87% 29.53 in 6.2 mi SSW 16.1 mph - N/A   Mostly Cloudy
11:50 PM 41.0 °F 31.9 °F 37.4 °F 87% 29.50 in 6.2 mi South 19.6 mph - N/A Rain Light Rain